Tri-Cities, TN

7:48 PM EST on December 05, 2019 (GMT -0500)
Tri-Cities Regional Tennessee / Virginia

Weather History for KTRI - October, 2019

Change the Weather History Date:

Friday, October 18, 2019

  Actual Average Record
Temperature  
Mean Temperature 50 °F 56 °F  
Max Temperature 65 °F 69 °F 85 °F (1938)
Min Temperature 34 °F 43 °F 25 °F (1943)
Degree Days  
Heating Degree Days 15 10  
Month to date heating degree days 69 131  
Since 1 July heating degree days 69 184  
Cooling Degree Days 0 0  
Month to date cooling degree days 67 9  
Year to date cooling degree days 1452 977  
Moisture  
Dew Point 37 °F    
Average Humidity 69    
Maximum Humidity 100    
Minimum Humidity 37    
Precipitation  
Precipitation 0.00 in 0.06 in 2.22 in (1990)
Month to date precipitation 2.03 1.18  
Year to date precipitation 43.64 33.62  
Snow  
Snow 0.00 in 0.00 in - ()
Month to date snowfall 0.0 0.0  
Since 1 July snowfall 0.0 0.0  
Since 1 September snowfall 0.0 0.0  
Snow Depth 0.00 in    
Sea Level Pressure  
Sea Level Pressure 30.03 in    
Wind  
Wind Speed 2 mph (East)    
Max Wind Speed 10 mph    
Max Gust Speed 13 mph    
Visibility 7 miles    
Events Fog    
T = Trace of Precipitation, MM = Missing Value Source: NWS Daily Summary

Daily Weather History Graph

Daily Weather History Graph

Search for Another Location

Airport or City:

Astronomy

Oct. 18, 2019 Rise Set
Actual Time 7:39 AM EDT 6:49 PM EDT
Civil Twilight 7:13 AM EDT 7:15 PM EDT
Nautical Twilight 6:43 AM EDT 7:45 PM EDT
Astronomical Twilight 6:13 AM EDT 8:15 PM EDT
Moon 10:11 PM EDT (10/18) 12:04 PM EDT (10/18)
Length of Visible Light 12h 02m
Length of Day
11h 10m
Waning Gibbous, 79% of the Moon is Illuminated
Oct 18
Waning Gibbous
Oct 21
Last Quarter
Oct 27
New
Nov 4
First Quarter
Nov 12
Full

Hourly Weather History & Observations

Time (EDT) Temp. Windchill Dew Point Humidity Pressure Visibility Wind Dir Wind Speed Gust Speed Precip Events Conditions
12:53 AM 41.0 °F - 36.0 °F 82% 29.99 in 10.0 mi Calm Calm - N/A   Clear
1:53 AM 39.0 °F - 36.0 °F 89% 29.99 in 10.0 mi Calm Calm - N/A   Clear
2:53 AM 37.9 °F - 36.0 °F 93% 29.99 in 10.0 mi Calm Calm - N/A   Clear
3:42 AM 37.0 °F - 35.1 °F 93% 30.02 in 10.0 mi Calm Calm - N/A   Scattered Clouds
3:53 AM 37.0 °F - 35.1 °F 93% 30.00 in 10.0 mi Calm Calm - N/A   Scattered Clouds
4:49 AM 35.6 °F - 33.8 °F 93% 30.04 in 1.8 mi Calm Calm - N/A   Scattered Clouds
4:53 AM 36.0 °F - 34.0 °F 93% 30.02 in 0.2 mi Calm Calm - N/A Fog Fog
5:37 AM 36.0 °F - 34.0 °F 93% 30.05 in 8.0 mi Calm Calm - N/A   Scattered Clouds
5:53 AM 36.0 °F - 35.1 °F 97% 30.03 in 8.0 mi Calm Calm - N/A   Clear
6:08 AM 34.0 °F - 33.1 °F 96% 30.06 in 8.0 mi Calm Calm - N/A   Partly Cloudy
6:53 AM 35.1 °F - 33.1 °F 92% 30.04 in 8.0 mi Calm Calm - N/A   Clear
7:28 AM 34.0 °F - 33.1 °F 96% 30.07 in 0.2 mi Calm Calm - N/A Fog Fog
7:41 AM 35.1 °F - 33.1 °F 92% 30.06 in 0.2 mi Calm Calm - N/A Fog Fog
7:53 AM 35.1 °F - 32.0 °F 89% 30.05 in 0.2 mi Calm Calm - N/A Fog Fog
8:53 AM 37.9 °F - 36.0 °F 93% 30.06 in 0.2 mi Calm Calm - N/A Fog Fog
9:01 AM 39.0 °F - 37.9 °F 96% 30.09 in 1.0 mi Calm Calm - N/A   Mist
9:09 AM 39.9 °F - 37.9 °F 93% 30.09 in 1.0 mi Calm Calm - N/A   Partly Cloudy
9:17 AM 39.9 °F - 39.0 °F 97% 30.08 in 10.0 mi Calm Calm - N/A   Clear
9:53 AM 45.0 °F 43.5 °F 39.9 °F 82% 30.07 in 10.0 mi SE 3.5 mph - N/A   Clear
10:53 AM 51.1 °F - 39.0 °F 63% 30.07 in 10.0 mi Calm Calm - N/A   Clear
11:53 AM 55.0 °F - 39.0 °F 55% 30.06 in 10.0 mi East 3.5 mph - N/A   Clear
12:53 PM 57.9 °F - 39.0 °F 49% 30.04 in 10.0 mi Calm Calm - N/A   Clear
2:53 PM 63.0 °F - 39.0 °F 41% 29.99 in 10.0 mi ESE 3.5 mph - N/A   Partly Cloudy
3:53 PM 63.0 °F - 37.9 °F 40% 29.98 in 10.0 mi Variable 3.5 mph - N/A   Scattered Clouds
4:53 PM 64.0 °F - 37.0 °F 37% 29.97 in 10.0 mi SSE 3.5 mph - N/A   Scattered Clouds
5:53 PM 62.1 °F - 39.0 °F 43% 29.98 in 10.0 mi South 6.9 mph - N/A   Mostly Cloudy
6:53 PM 59.0 °F - 37.9 °F 46% 29.99 in 10.0 mi West 3.5 mph - N/A   Mostly Cloudy
7:53 PM 50.0 °F - 41.0 °F 71% 30.00 in 10.0 mi Calm Calm - N/A   Mostly Cloudy
8:53 PM 46.9 °F - 41.0 °F 80% 30.00 in 10.0 mi NNE 3.5 mph - N/A   Mostly Cloudy
9:53 PM 46.0 °F - 39.9 °F 79% 29.99 in 10.0 mi Calm Calm - N/A   Scattered Clouds
10:53 PM 44.1 °F 42.5 °F 41.0 °F 89% 29.99 in 10.0 mi North 3.5 mph - N/A   Mostly Cloudy
11:53 PM 42.1 °F 40.2 °F 39.0 °F 89% 29.98 in 10.0 mi NNE 3.5 mph - N/A   Mostly Cloudy